Погода в Верх-Аскизе

Россия / Республика Хакасия     53°09′38″N   90°11′00″E
темп.,
°C
ветер,
м/с
пор.,
м/с
влажн.,
%
обл.,
%
осадки,
мм/ч
давл.,
гПа
погр.,
м
12 мая, ср
ср1201:00+8с3450100 0.0 101349
04:00+7ссз225099 0.0 101323
07:00+9с2253100 0.0 101482
10:00+13всв3442100 0.0 1013939
13:00+15св5535100 0.0 10121886
16:00+16св5528100 0.0 10112474
19:00+15св4735100 0.0 1012722
22:00+10с3349100 0.0 101339
13 мая, чт
чт1301:00+8с3357100 0.0 101534
04:00+7ссз225999 0.0 101511
07:00+9зюз115577 0.0 101687
10:00+13юз224450 0.0 10151256
13:00+14ююв2241100 0.0 10131842
16:00+16юз224015 0.0 10121745
19:00+15зсз3344100 0.0 10111265
22:00+10ссз1166100 0.0 101311
14 мая, пт
пт1401:00+9зсз2269100 0.0 101317
04:00+8з227792 0.0 101219
07:00+9з2370100 0.0 1013148
10:00+13зюз465551 0.2 10121293
13:00+12зсз81060100 0.6 10121207
16:00+12зсз6955100 0.1 10131039
19:00+10з79586 0.3 10171161
22:00+6св117691 0.6 102136
15 мая, сб
сб1501:00+4ю229035 0.8 102451
04:00+3з229297 0.0 102529
07:00+6зюз3856100 0.0 1025527
10:00+9з784099 0.0 10241290
13:00+12з9104284 0.0 10221321
16:00+11з91353100 0.3 1023863
19:00+10зюз61466100 0.6 1023797
22:00+9юз31076100 0.3 1023461
16 мая, вс
вс1601:00+7зюз348296 0.3 102386
04:00+8зюз3477100 0.0 1021110
07:00+9зюз347697 0.0 1020109
10:00+16юз51049100 0.0 10181050
13:00+18зюз61144100 0.1 10161594
16:00+20зюз9114111 0.2 10142009
19:00+19зюз61251100 0.2 10131530
22:00+15зюз51165100 0.0 1012327